Houston / Dunn Helistop, TX

8:17 AM CDT on July 25, 2017 (GMT -0500)
Houston / Dunn Helistop

Weather History for KMCJ - January, 2014

Change the Weather History Date:

Friday, January 10, 2014

  Actual Average (KHOU) Record (KHOU)
Temperature  
Mean Temperature 63 °F -  
Max Temperature 69 °F 61 °F 82 °F (1963)
Min Temperature 57 °F 43 °F 18 °F (1977)
Degree Days  
Heating Degree Days 2    
Growing Degree Days 13 (Base 50)    
Moisture  
Dew Point 61 °F    
Average Humidity 93    
Maximum Humidity 100    
Minimum Humidity 73    
Precipitation  
Precipitation 0.01 in - - ()
Sea Level Pressure  
Sea Level Pressure 29.89 in    
Wind  
Wind Speed 9 mph (SSE)    
Max Wind Speed 17 mph    
Max Gust Speed 29 mph    
Visibility 7 miles    
Events      
Averages and records for this station are not official NWS values.
T = Trace of Precipitation, MM = Missing Value Source: NWS Daily Summary

Daily Weather History Graph

Daily Weather History Graph

Search for Another Location

Airport or City:

Trip Planner

Search our weather history database for the weather conditions in past years. The results will help you decide how hot, cold, wet, or windy it might be!

Date:

Astronomy

Jan. 10, 2014 Rise Set
Actual Time 7:17 AM CST 5:40 PM CST
Civil Twilight 6:52 AM CST 6:06 PM CST
Nautical Twilight 6:22 AM CST 6:36 PM CST
Astronomical Twilight 5:53 AM CST 7:04 PM CST
Moon 1:39 PM CST (1/10) 2:33 AM CST (1/10)
Length of Visible Light 11h 14m
Length of Day
10h 22m
Waxing Gibbous, 75% of the Moon is Illuminated
Jan 10
Waxing Gibbous
Jan 15
Full
Jan 23
Last Quarter
Jan 30
New
Feb 6
First Quarter

Hourly Weather History & Observations

Time (CST) Temp. Dew Point Humidity Pressure Visibility Wind Dir Wind Speed Gust Speed Precip Events Conditions
12:15 AM 57.2 °F 57.2 °F 100% 30.04 in 3.0 mi ESE 8.1 mph - N/A   Overcast
12:35 AM 57.2 °F 57.2 °F 100% 30.03 in 3.0 mi ESE 9.2 mph - N/A   Overcast
12:55 AM 57.2 °F 57.2 °F 100% 30.03 in 2.5 mi ESE 10.4 mph 16.1 mph N/A   Overcast
1:15 AM 57.2 °F 57.2 °F 100% 30.02 in 2.5 mi ESE 10.4 mph - N/A   Overcast
1:35 AM 57.2 °F 57.2 °F 100% 30.01 in 2.5 mi ESE 8.1 mph - N/A   Overcast
1:55 AM 57.2 °F 57.2 °F 100% 30.01 in 2.5 mi ESE 8.1 mph - N/A   Overcast
2:15 AM 57.2 °F 57.2 °F 100% 30.00 in 3.0 mi ESE 8.1 mph - N/A   Overcast
2:35 AM 57.2 °F 57.2 °F 100% 29.99 in 4.0 mi ESE 6.9 mph - N/A   Overcast
2:55 AM 57.2 °F 57.2 °F 100% 29.99 in 4.0 mi ESE 9.2 mph - N/A   Mostly Cloudy
3:15 AM 57.2 °F 57.2 °F 100% 29.98 in 3.0 mi ESE 6.9 mph - N/A   Mostly Cloudy
3:35 AM 57.2 °F 57.2 °F 100% 29.97 in 3.0 mi ESE 6.9 mph - N/A   Scattered Clouds
3:55 AM 57.2 °F 57.2 °F 100% 29.97 in 5.0 mi ESE 9.2 mph - N/A   Scattered Clouds
4:15 AM 57.2 °F 57.2 °F 100% 29.97 in 4.0 mi ESE 8.1 mph - N/A   Partly Cloudy
4:35 AM 57.2 °F 57.2 °F 100% 29.97 in 3.0 mi ESE 6.9 mph - N/A   Mostly Cloudy
4:55 AM 57.2 °F 57.2 °F 100% 29.96 in 3.0 mi ESE 6.9 mph - N/A   Overcast
5:15 AM 57.2 °F 57.2 °F 100% 29.96 in 3.0 mi ESE 6.9 mph - N/A   Mostly Cloudy
5:35 AM 57.2 °F 57.2 °F 100% 29.95 in 6.0 mi SE 8.1 mph - N/A   Mostly Cloudy
5:55 AM 57.2 °F 57.2 °F 100% 29.94 in 7.0 mi SE 8.1 mph - N/A   Mostly Cloudy
6:15 AM 57.2 °F 57.2 °F 100% 29.94 in 7.0 mi SE 9.2 mph - N/A   Mostly Cloudy
6:35 AM 57.2 °F 57.2 °F 100% 29.94 in 8.0 mi SE 8.1 mph - N/A   Mostly Cloudy
6:55 AM 57.2 °F 57.2 °F 100% 29.94 in 8.0 mi ESE 8.1 mph - N/A   Overcast
7:15 AM 59.0 °F 57.2 °F 94% 29.95 in 7.0 mi SE 8.1 mph - N/A   Overcast
7:35 AM 59.0 °F 57.2 °F 94% 29.95 in 6.0 mi SE 10.4 mph - N/A   Overcast
7:55 AM 59.0 °F 57.2 °F 94% 29.95 in 7.0 mi ESE 5.8 mph - N/A   Overcast
8:15 AM 59.0 °F 57.2 °F 94% 29.96 in 7.0 mi SE 8.1 mph - N/A   Scattered Clouds
8:35 AM 59.0 °F 57.2 °F 94% 29.96 in 7.0 mi SE 9.2 mph - N/A   Partly Cloudy
8:55 AM 60.8 °F 59.0 °F 94% 29.96 in 7.0 mi SE 8.1 mph - N/A   Mostly Cloudy
9:15 AM 62.6 °F 59.0 °F 88% 29.97 in 10.0 mi SE 6.9 mph - N/A   Partly Cloudy
9:35 AM 62.6 °F 59.0 °F 88% 29.97 in 10.0 mi SE 9.2 mph - N/A   Scattered Clouds
9:55 AM 66.2 °F 59.0 °F 78% 29.97 in 10.0 mi ESE 9.2 mph - N/A   Mostly Cloudy
10:15 AM 66.2 °F 59.0 °F 78% 29.96 in 10.0 mi SSE 6.9 mph - N/A   Mostly Cloudy
10:35 AM 68.0 °F 60.8 °F 78% 29.94 in 10.0 mi SSE 16.1 mph 19.6 mph N/A   Overcast
10:55 AM 68.0 °F 59.0 °F 73% 29.93 in 10.0 mi SSE 13.8 mph 23.0 mph N/A   Overcast
11:15 AM 68.0 °F 60.8 °F 78% 29.92 in 10.0 mi SSE 10.4 mph 20.7 mph N/A   Overcast
11:35 AM 68.0 °F 60.8 °F 78% 29.90 in 10.0 mi SE 11.5 mph 16.1 mph N/A   Overcast
11:55 AM 68.0 °F 60.8 °F 78% 29.89 in 10.0 mi SE 11.5 mph 18.4 mph N/A   Overcast
12:35 PM 68.0 °F 62.6 °F 83% 29.86 in 2.5 mi SSE 15.0 mph 21.9 mph N/A   Overcast
12:55 PM 66.2 °F 64.4 °F 94% 29.85 in 2.5 mi SSE 11.5 mph 19.6 mph N/A   Overcast
1:15 PM 66.2 °F 64.4 °F 94% 29.83 in 2.0 mi SSE 10.4 mph - N/A   Overcast
1:35 PM 66.2 °F 64.4 °F 94% 29.82 in 4.0 mi SSE 10.4 mph - N/A   Overcast
1:55 PM 68.0 °F 64.4 °F 88% 29.80 in 10.0 mi SSE 15.0 mph 19.6 mph N/A   Overcast
2:15 PM 68.0 °F 64.4 °F 88% 29.79 in 10.0 mi SSE 15.0 mph 20.7 mph N/A   Overcast
2:35 PM 68.0 °F 64.4 °F 88% 29.79 in 10.0 mi SSE 15.0 mph - N/A   Overcast
2:55 PM 68.0 °F 64.4 °F 88% 29.79 in 10.0 mi SSE 9.2 mph - N/A   Overcast
3:15 PM 69.8 °F 62.6 °F 78% 29.78 in 10.0 mi South 9.2 mph - N/A   Overcast
3:35 PM 69.8 °F 62.6 °F 78% 29.78 in 5.0 mi South 8.1 mph 17.3 mph N/A   Overcast
3:55 PM 68.0 °F 64.4 °F 88% 29.79 in - South 8.1 mph 20.7 mph 0.01 in   Unknown
4:15 PM 66.2 °F 64.4 °F 94% 29.79 in - SSW 8.1 mph 17.3 mph N/A   Unknown
4:35 PM 68.0 °F 66.2 °F 94% 29.78 in 9.0 mi South 5.8 mph - N/A   Mostly Cloudy
4:55 PM 68.0 °F 66.2 °F 94% 29.78 in 10.0 mi SSW 8.1 mph - N/A   Mostly Cloudy
5:15 PM 68.0 °F 66.2 °F 94% 29.79 in 10.0 mi SW 4.6 mph - N/A   Mostly Cloudy
5:35 PM 68.0 °F 64.4 °F 88% 29.79 in 10.0 mi SSW 5.8 mph - N/A   Overcast
5:55 PM 68.0 °F 64.4 °F 88% 29.79 in 10.0 mi SW 9.2 mph - N/A   Overcast
6:15 PM 68.0 °F 64.4 °F 88% 29.79 in 10.0 mi SW 5.8 mph - N/A   Overcast
6:35 PM 68.0 °F 66.2 °F 94% 29.79 in 10.0 mi SSW 10.4 mph - N/A   Overcast
6:55 PM 68.0 °F 66.2 °F 94% 29.80 in 10.0 mi SW 12.7 mph 18.4 mph N/A   Overcast
8:15 PM 68.0 °F 66.2 °F 94% 29.81 in 9.0 mi SW 9.2 mph 17.3 mph N/A   Overcast
8:35 PM 68.0 °F 66.2 °F 94% 29.81 in 10.0 mi SSW 8.1 mph - N/A   Overcast
8:55 PM 68.0 °F 66.2 °F 94% 29.82 in 10.0 mi SW 17.3 mph 27.6 mph N/A   Overcast
9:15 PM 68.0 °F 66.2 °F 94% 29.82 in 10.0 mi SW 12.7 mph 21.9 mph N/A   Overcast
9:35 PM 68.0 °F 66.2 °F 94% 29.81 in 9.0 mi WSW 12.7 mph 23.0 mph N/A   Overcast
9:55 PM 68.0 °F 66.2 °F 94% 29.82 in 10.0 mi SSW 12.7 mph 19.6 mph N/A   Overcast
10:15 PM 68.0 °F 66.2 °F 94% 29.82 in 10.0 mi WSW 10.4 mph 25.3 mph N/A   Overcast
10:35 PM 68.0 °F 66.2 °F 94% 29.82 in 8.0 mi SW 16.1 mph 28.8 mph N/A   Overcast
10:55 PM 68.0 °F 66.2 °F 94% 29.83 in 7.0 mi SW 13.8 mph 24.2 mph N/A   Overcast
11:15 PM 68.0 °F 66.2 °F 94% 29.83 in 7.0 mi WSW 6.9 mph - N/A   Overcast
11:35 PM 66.2 °F 66.2 °F 100% 29.84 in 7.0 mi WSW 6.9 mph - N/A   Overcast
11:55 PM 66.2 °F 64.4 °F 94% 29.83 in 9.0 mi SW 6.9 mph - N/A   Overcast